Home > Time Zones > World Clock > Weather > U.S.A. > Yuma > Past weeks

Flag for U.S.A. Weather past 2 weeks in Yuma, Arizona, U.S.A.

Now
88 °F

Clear.


Feels Like: 93 °F
Forecast: 82 / 105 °F
Wind: No wind

Location: Yuma Marine Corps Air Station

Current Time: Sep 1, 2015 at 5:22:02 AM

Latest Report: Sep 1, 2015 at 4:57 AM


Visibility: 10 mi

Pressure: 29.77 "Hg

Humidity: 55%

Dew point: 70 °F

Location of YumaLocation

Historic Weather in Yuma — Graph

°F

Yuma temperature yesterday

Maximum temperature yesterday: 106 °F (at 3:57 PM)
Minimum temperature yesterday: 85 °F (at 5:57 AM)
Average temperature yesterday: 95 °F

Past Weeks' High & Low Weather Summary

 TemperatureHumidityPressure
High113 °F (Aug 29, 3:57 PM)75% (Aug 21, 3:57 AM)29.92 "Hg (Aug 21, 3:57 AM)
Low83 °F (Aug 23, 5:57 AM)13% (Aug 30, 12:57 PM)29.63 "Hg (Aug 18, 5:57 PM)
Average96 °F39%29.76 "Hg
* Reported Aug 17 3:57 AM — Sep 1 3:57 AM, Yuma, Weather by CustomWeather, © 2015

Note: Actual official high and low records may vary slightly from our data, if they occured in-between our weather recording intervals... More about our weather records

Advertising

Yuma weather history for previous 24 hours

 ConditionsComfort  
Time TempWeatherWind HumidityBarometerVisibility
3:57 AM
Tue, Sep 1
88 °FClear.13 mph55%29.76 "Hg10 mi
2:57 AM88 °FClear.17 mph59%29.75 "Hg10 mi
1:57 AM88 °FClear.16 mph63%29.75 "Hg10 mi
12:57 AM88 °FClear.16 mph65%29.74 "Hg10 mi
11:57 PM
Mon, Aug 31
88 °FClear.14 mph55%29.75 "Hg10 mi
10:57 PM89 °FPassing clouds.20 mph48%29.75 "Hg10 mi
9:57 PM90 °FPartly cloudy.14 mph47%29.74 "Hg10 mi
7:57 PM96 °FPassing clouds.18 mph29%29.69 "Hg10 mi
6:57 PM101 °FBroken clouds.15 mph21%29.67 "Hg10 mi
5:57 PM106 °FBroken clouds.13 mph17%29.65 "Hg10 mi
4:57 PM106 °FScattered clouds.9 mph20%29.65 "Hg10 mi
3:57 PM106 °FScattered clouds.8 mph21%29.67 "Hg10 mi
1:57 PM105 °FScattered clouds.9 mph25%29.72 "Hg10 mi
12:57 PM104 °FScattered clouds.16 mph27%29.75 "Hg10 mi
11:57 AM103 °FScattered clouds.14 mph27%29.77 "Hg10 mi
10:57 AM98 °FScattered clouds.10 mph40%29.79 "Hg10 mi
9:57 AM96 °FBroken clouds.12 mph41%29.79 "Hg10 mi
8:57 AM94 °FBroken clouds.10 mph48%29.78 "Hg10 mi
7:57 AM90 °FPartly sunny.6 mph48%29.78 "Hg10 mi
6:57 AM86 °FPartly sunny.No wind35%29.75 "Hg10 mi
5:57 AM85 °FPassing clouds.3 mph36%29.73 "Hg10 mi
Weather by CustomWeather, © 2015

See weather overviewHow to use our weather pages